LiveATC.Net - Listen to live air traffic control over the Internet!


ICAO: ENTC  IATA: TOS   Airport: Tromso Airport
City: Langnes
Country: Norway   Continent: Europe
ENTC METAR Weather: ENTC 070250Z AUTO 24013KT 9999 SCT025/// OVC041/// 07/04 Q0983 RMK WIND 2600FT 28025KT
ENTC ADS-B Flight Tracking (ADSBExchange)
ENTC Flight Activity (FlightAware)
ENTC Webcam:  (Airport Webcams) 

ENTC Tower/App
Feed Status: UP   Listeners: 1
Listen in your browser - HTML5 player (in browser, HTML5)
Click here to listen with your own player (launches your MP3 player)
Archive Access: ENTC Tower/App
FacilityFrequency
Langnes Tower118.300
Langnes VDF (Approach)123.750

NOTICE

Unauthorized use prohibited. See LiveATC.net Terms of Service


Airport/ARTCC Code
Frequency Search
(e.g., 124.400, 128.75)
Site-wide search
 


Browse Feeds
Top 50 Feeds
HF Oceanic Feeds
Coverage Map
Bad Weather Areas

LiveATC FAQ
Offer LiveATC feed
Contact LiveATC.net
Press Inquiries

LiveATC on iPhone
LiveATC on Android

LiveATC Mobile
(Mobile browser)

ATC Audio Archives
Interesting Recordings

LiveATC Forums


Home Page
About LiveATC.net


Terms of Use
Privacy Policy

AIRMETs/SIGMETs

FAA Airport Status
NAS Status
Arrival Demand


Server Software By:
Icecast.org
Liquidsoap